Temp
-15 -15 -15 -15 -15 -15 -15 -15 -14 -14 -14 -14 -14 -14 -14 -14 -14 -14 -14 -14 -14 -14 -14 -14 -14 -14 -14 -14 -15 -15 -15 -15 -15 -14 -15 -15 -15 -15 -15 -15 -15 -15 -15 -15
-15 -15 -15 -15 -15 -15 -14 -14 -14 -14 -14 -14 -14 -14 -14 -14 -14 -14 -14 -13 -13 -14 -14 -15 -15 -15 -15 -15 -15 -15 -15 -15 -15 -15 -15 -15 -15 -15 -15 -15 -15 -15 -15 -15
-14 -14 -14 -14 -15 -14 -14 -14 -14 -14 -14 -14 -14 -14 -14 -14 -14 -15 -15 -14 -15 -15 -15 -15 -15 -15 -15 -15 -15 -15 -15 -15 -15 -15 -15 -15 -15 -15 -15 -15 -15 -15 -15 -16
-14 -14 -13 -14 -15 -14 -14 -14 -14 -14 -14 -14 -14 -14 -14 -15 -15 -15 -15 -15 -15 -15 -15 -15 -15 -15 -15 -15 -15 -15 -15 -16 -16 -16 -16 -16 -16 -16 -16 -16 -16 -16 -16 -16
-14 -14 -14 -14 -14 -14 -14 -15 -14 -14 -14 -14 -14 -14 -15 -14 -15 -15 -15 -15 -15 -15 -15 -15 -16 -16 -16 -16 -16 -16 -16 -16 -16 -16 -17 -17 -17 -16 -16 -16 -16 -16 -16 -16
-14 -14 -14 -14 -15 -15 -14 -14 -15 -15 -15 -15 -15 -15 -15 -15 -16 -16 -16 -16 -16 -16 -16 -16 -16 -17 -17 -17 -17 -17 -17 -17 -17 -17 -17 -17 -17 -17 -17 -17 -17 -17 -17 -17
-14 -14 -14 -15 -15 -15 -15 -15 -15 -15 -15 -15 -16 -16 -16 -16 -16 -17 -17 -17 -17 -17 -17 -17 -17 -18 -18 -18 -18 -18 -18 -18 -18 -18 -18 -17 -18 -18 -18 -18 -18 -18 -18 -18
-15 -14 -14 -15 -15 -15 -15 -15 -15 -15 -16 -16 -16 -16 -16 -16 -16 -17 -17 -17 -17 -17 -17 -18 -18 -18 -18 -18 -18 -18 -18 -18 -18 -18 -18 -18 -18 -18 -18 -18 -18 -18 -18 -18
-16 -15 -15 -15 -15 -16 -16 -16 -16 -16 -16 -17 -17 -17 -17 -17 -17 -17 -17 -18 -18 -18 -18 -18 -18 -19 -19 -19 -19 -19 -19 -19 -19 -19 -18 -18 -18 -18 -19 -19 -19 -19 -19 -18
-16 -17 -17 -16 -16 -16 -16 -16 -17 -17 -17 -17 -17 -17 -18 -18 -18 -18 -18 -18 -19 -19 -19 -19 -20 -20 -20 -20 -20 -20 -20 -20 -20 -20 -20 -20 -19 -19 -19 -19 -20 -20 -20 -19
-18 -18 -17 -17 -17 -17 -17 -17 -17 -17 -18 -18 -18 -18 -18 -18 -19 -19 -19 -20 -20 -20 -20 -21 -21 -21 -21 -21 -21 -21 -21 -21 -21 -21 -21 -21 -21 -21 -21 -21 -20 -20 -20 -20
-18 -18 -18 -18 -18 -18 -18 -18 -18 -18 -18 -18 -18 -19 -19 -19 -20 -20 -20 -21 -21 -21 -22 -22 -22 -22 -22 -22 -22 -22 -22 -22 -22 -22 -22 -22 -22 -22 -22 -22 -22 -22 -21 -21
-19 -19 -19 -18 -19 -19 -19 -19 -19 -19 -19 -19 -19 -19 -20 -20 -21 -21 -21 -22 -22 -22 -23 -23 -23 -23 -23 -22 -23 -23 -23 -23 -23 -23 -23 -23 -23 -23 -23 -23 -23 -23 -23 -22
-19 -19 -19 -19 -19 -19 -19 -19 -19 -19 -19 -20 -20 -21 -21 -21 -22 -22 -22 -23 -23 -23 -23 -23 -23 -23 -24 -23 -24 -25 -25 -25 -25 -24 -24 -24 -24 -24 -24 -24 -24 -24 -24 -24
-19 -19 -19 -19 -20 -20 -20 -20 -20 -20 -21 -21 -22 -22 -23 -23 -23 -24 -24 -24 -24 -24 -24 -24 -24 -25 -25 -26 -26 -26 -26 -26 -26 -26 -26 -26 -26 -26 -26 -25 -25 -25 -25 -25
-20 -20 -20 -20 -20 -20 -21 -21 -21 -22 -22 -22 -23 -23 -23 -23 -24 -24 -24 -24 -25 -25 -26 -26 -26 -26 -27 -27 -27 -27 -27 -27 -27 -27 -27 -27 -27 -27 -26 -26 -26 -26 -26 -26
-21 -21 -21 -21 -21 -22 -22 -22 -22 -23 -23 -23 -23 -24 -24 -24 -25 -25 -26 -26 -26 -27 -27 -28 -27 -28 -28 -28 -28 -28 -27 -27 -27 -27 -27 -27 -27 -27 -27 -27 -27 -27 -27 -27
-22 -22 -22 -22 -23 -23 -23 -23 -23 -23 -24 -24 -24 -24 -25 -25 -26 -27 -27 -27 -28 -28 -29 -29 -29 -29 -29 -29 -28 -28 -28 -27 -28 -28 -28 -28 -27 -27 -27 -27 -27 -27 -27 -27
-24 -23 -23 -24 -24 -24 -24 -24 -24 -24 -25 -25 -25 -25 -26 -27 -28 -28 -28 -28 -29 -30 -30 -30 -30 -30 -30 -30 -29 -29 -29 -29 -29 -29 -29 -28 -28 -28 -28 -28 -28 -28 -28 -28
-25 -24 -24 -24 -25 -25 -25 -25 -26 -26 -26 -26 -27 -28 -28 -29 -29 -29 -29 -30 -30 -31 -31 -31 -31 -31 -31 -30 -30 -30 -30 -30 -30 -30 -30 -30 -29 -29 -29 -29 -29 -30 -30 -30
-25 -25 -26 -26 -26 -26 -26 -27 -27 -28 -28 -29 -29 -30 -30 -30 -30 -31 -31 -31 -31 -32 -32 -32 -31 -31 -31 -31 -31 -31 -31 -32 -32 -31 -31 -31 -31 -31 -31 -31 -32 -32 -32 -31
-27 -27 -27 -27 -28 -28 -29 -29 -30 -30 -30 -31 -31 -31 -31 -31 -31 -31 -32 -32 -32 -32 -32 -32 -32 -32 -32 -33 -32 -33 -33 -33 -33 -34 -34 -34 -34 -34 -34 -33 -33 -33 -33 -33
-28 -28 -28 -29 -29 -30 -30 -30 -31 -31 -31 -31 -31 -32 -32 -32 -32 -32 -32 -32 -33 -33 -33 -32 -32 -33 -33 -33 -34 -34 -34 -35 -35 -35 -35 -35 -35 -34 -34 -34 -34 -34 -34 -33
-30 -30 -31 -31 -31 -31 -31 -32 -32 -32 -32 -32 -32 -33 -33 -33 -33 -33 -33 -33 -33 -33 -33 -33 -33 -34 -34 -34 -35 -35 -35 -36 -36 -36 -35 -35 -35 -35 -34 -34 -34 -34 -34 -34
-32 -32 -32 -32 -32 -32 -33 -33 -33 -33 -33 -33 -33 -33 -33 -34 -34 -33 -34 -34 -34 -34 -33 -34 -35 -35 -34 -34 -35 -35 -36 -36 -35 -35 -35 -34 -35 -35 -35 -34 -34 -34 -34 -34
-32 -32 -32 -33 -33 -33 -33 -33 -33 -33 -33 -33 -33 -33 -34 -34 -34 -34 -34 -34 -34 -34 -34 -35 -35 -35 -35 -35 -35 -36 -36 -36 -36 -35 -35 -35 -34 -35 -35 -35 -34 -34 -34 -34
-33 -33 -33 -33 -33 -33 -33 -34 -34 -34 -34 -34 -34 -34 -34 -34 -34 -34 -34 -35 -35 -35 -35 -35 -35 -35 -35 -35 -36 -36 -36 -36 -36 -36 -36 -35 -35 -35 -35 -34 -34 -34 -34 -34
Height
5722 5723 5725 5727 5728 5729 5730 5733 5732 5736 5736 5737 5737 5737 5736 5736 5736 5735 5734 5733 5731 5729 5727 5724 5722 5720 5718 5715 5713 5711 5709 5708 5705 5702 5700 5698 5696 5694 5692 5690 5688 5686 5683 5681
5720 5720 5720 5722 5724 5726 5727 5728 5728 5729 5730 5729 5730 5730 5729 5727 5727 5726 5724 5722 5720 5718 5716 5714 5711 5708 5707 5705 5703 5702 5700 5697 5694 5692 5690 5689 5687 5685 5683 5680 5678 5675 5673 5671
5715 5715 5716 5719 5718 5717 5719 5721 5720 5719 5722 5718 5718 5718 5718 5716 5716 5713 5712 5711 5709 5707 5705 5703 5701 5700 5698 5695 5694 5692 5689 5687 5685 5683 5681 5679 5677 5674 5672 5669 5667 5665 5662 5660
5709 5708 5710 5713 5712 5710 5710 5710 5710 5709 5708 5709 5707 5708 5708 5707 5706 5704 5702 5700 5698 5696 5694 5692 5690 5688 5685 5683 5681 5679 5677 5675 5674 5672 5670 5668 5665 5663 5660 5657 5655 5654 5651 5649
5702 5703 5704 5706 5706 5705 5704 5704 5701 5701 5699 5700 5700 5698 5697 5696 5695 5694 5692 5691 5689 5687 5685 5683 5680 5678 5675 5672 5669 5667 5664 5662 5660 5658 5656 5653 5651 5649 5647 5645 5643 5640 5638 5636
5695 5694 5695 5698 5697 5695 5693 5695 5693 5692 5692 5691 5689 5687 5686 5683 5682 5681 5679 5677 5675 5674 5672 5670 5667 5664 5661 5659 5656 5654 5652 5650 5647 5644 5642 5639 5637 5635 5632 5630 5629 5627 5625 5623
5686 5685 5686 5689 5686 5685 5684 5687 5682 5681 5680 5679 5678 5677 5675 5672 5670 5669 5666 5664 5663 5660 5658 5656 5653 5650 5648 5645 5643 5640 5637 5634 5632 5630 5627 5625 5622 5620 5618 5615 5613 5611 5609 5607
5677 5675 5677 5678 5676 5675 5673 5671 5671 5671 5669 5668 5666 5664 5662 5661 5659 5657 5655 5652 5648 5646 5644 5642 5639 5636 5634 5631 5627 5624 5621 5619 5616 5613 5611 5609 5606 5603 5601 5600 5598 5596 5594 5592
5668 5668 5666 5664 5664 5663 5662 5661 5659 5658 5657 5655 5654 5653 5651 5649 5647 5644 5641 5639 5636 5633 5629 5626 5623 5621 5619 5616 5613 5610 5607 5603 5601 5598 5595 5591 5588 5586 5584 5581 5579 5577 5576 5575
5655 5657 5654 5652 5651 5650 5649 5648 5647 5646 5644 5642 5640 5638 5636 5634 5632 5629 5626 5623 5620 5617 5614 5611 5608 5605 5602 5600 5598 5594 5590 5587 5584 5581 5578 5575 5572 5569 5566 5562 5561 5560 5557 5555
5641 5641 5637 5638 5637 5636 5635 5634 5633 5631 5629 5627 5625 5623 5620 5618 5616 5613 5610 5607 5604 5602 5598 5595 5591 5588 5584 5582 5578 5574 5572 5569 5566 5563 5560 5558 5554 5552 5549 5544 5541 5540 5539 5537
5625 5624 5623 5625 5623 5622 5622 5620 5618 5616 5614 5612 5609 5606 5603 5601 5598 5595 5592 5589 5586 5583 5580 5577 5574 5570 5566 5562 5559 5557 5554 5549 5546 5544 5541 5538 5536 5535 5530 5527 5524 5519 5516 5515
5609 5609 5607 5607 5608 5607 5606 5605 5603 5601 5599 5596 5593 5590 5587 5584 5580 5576 5574 5570 5567 5564 5561 5558 5555 5551 5545 5543 5540 5537 5534 5530 5527 5524 5521 5518 5515 5513 5511 5509 5504 5500 5496 5493
5594 5592 5592 5592 5591 5590 5589 5587 5585 5583 5581 5578 5575 5572 5569 5566 5563 5559 5555 5552 5549 5546 5542 5539 5536 5531 5525 5523 5520 5517 5513 5509 5505 5503 5499 5496 5493 5490 5487 5485 5485 5483 5477 5472
5579 5578 5577 5576 5575 5573 5571 5570 5568 5565 5562 5560 5557 5554 5551 5548 5544 5540 5536 5534 5532 5529 5525 5521 5516 5511 5506 5502 5499 5495 5492 5488 5483 5481 5478 5474 5471 5468 5464 5462 5459 5457 5455 5453
5563 5562 5560 5559 5557 5555 5553 5551 5549 5547 5545 5542 5539 5536 5533 5529 5526 5522 5518 5515 5514 5510 5504 5499 5496 5491 5486 5482 5477 5475 5471 5468 5463 5460 5458 5453 5449 5445 5442 5438 5436 5433 5430 5426
5546 5545 5543 5542 5540 5538 5535 5532 5531 5529 5526 5524 5521 5517 5514 5511 5508 5504 5501 5497 5493 5490 5484 5479 5477 5472 5468 5462 5458 5456 5453 5449 5443 5439 5435 5430 5426 5422 5419 5416 5413 5410 5407 5403
5528 5526 5524 5523 5521 5519 5516 5514 5512 5510 5508 5506 5504 5501 5498 5494 5491 5487 5483 5480 5477 5473 5466 5460 5458 5455 5450 5444 5439 5435 5432 5428 5423 5417 5413 5408 5404 5400 5397 5393 5390 5387 5385 5382
5510 5509 5507 5506 5504 5502 5500 5497 5495 5493 5491 5489 5487 5484 5481 5477 5474 5471 5467 5464 5460 5454 5451 5444 5441 5437 5432 5426 5420 5416 5411 5406 5401 5397 5391 5387 5383 5380 5376 5372 5369 5366 5363 5361
5492 5490 5489 5487 5486 5485 5483 5481 5480 5477 5475 5474 5472 5469 5466 5463 5459 5455 5451 5449 5445 5436 5432 5428 5423 5418 5411 5405 5400 5395 5389 5385 5379 5375 5371 5366 5362 5359 5355 5352 5348 5345 5342 5340
5475 5472 5472 5472 5470 5468 5467 5465 5464 5462 5460 5458 5456 5453 5451 5449 5444 5439 5436 5433 5433 5422 5417 5412 5405 5399 5392 5385 5380 5374 5368 5362 5357 5352 5348 5345 5340 5337 5334 5331 5329 5326 5324 5321
5461 5459 5458 5457 5455 5454 5453 5451 5449 5448 5446 5443 5440 5438 5435 5433 5428 5425 5421 5415 5412 5407 5399 5394 5386 5378 5371 5365 5360 5354 5349 5343 5338 5333 5329 5326 5322 5320 5318 5316 5313 5310 5308 5306
5447 5446 5444 5443 5442 5442 5441 5438 5435 5433 5432 5430 5426 5422 5419 5416 5412 5406 5404 5401 5392 5386 5379 5374 5367 5359 5351 5345 5340 5335 5330 5327 5322 5318 5314 5310 5307 5304 5302 5300 5299 5297 5295 5293
5435 5433 5432 5430 5430 5429 5427 5424 5420 5419 5416 5414 5411 5408 5402 5397 5394 5391 5383 5378 5373 5365 5357 5351 5345 5338 5330 5325 5321 5317 5315 5311 5308 5303 5300 5296 5293 5290 5288 5287 5286 5284 5283 5281
5422 5421 5420 5418 5416 5414 5411 5410 5407 5406 5402 5399 5396 5392 5387 5381 5373 5373 5365 5358 5351 5344 5337 5331 5324 5319 5314 5310 5306 5303 5300 5297 5293 5289 5285 5282 5280 5277 5276 5275 5273 5273 5272 5272
5410 5408 5406 5405 5403 5400 5397 5393 5391 5390 5385 5381 5380 5375 5370 5364 5357 5350 5345 5338 5331 5325 5319 5314 5309 5304 5300 5296 5294 5291 5287 5283 5279 5275 5272 5269 5267 5265 5264 5263 5263 5263 5263 5262
5397 5394 5393 5391 5389 5384 5380 5377 5373 5372 5368 5363 5357 5355 5348 5343 5336 5328 5322 5316 5311 5307 5302 5299 5295 5291 5287 5285 5282 5279 5275 5271 5267 5264 5261 5258 5255 5254 5254 5254 5254 5254 5254 5255
Wind_Speed
13 16 17 20 25 29 31 29 34 32 35 36 37 38 42 44 44 44 45 47 49 51 53 56 55 54 51 47 43 39 37 38 41 42 38 35 34 35 35 35 36 37 37 34
18 20 23 23 24 26 28 30 34 35 36 37 39 40 42 45 47 48 51 53 54 52 49 46 45 44 42 39 37 39 41 43 41 38 37 37 37 37 38 39 39 39 38 37
18 24 27 25 27 31 32 32 36 38 38 42 42 43 43 43 41 43 42 41 39 38 38 38 37 38 39 40 42 44 43 42 40 40 40 40 40 41 41 42 42 41 41 40
18 21 20 18 22 26 27 29 30 33 35 33 35 35 35 37 37 38 39 40 40 40 41 42 43 43 44 44 43 43 42 42 43 44 45 45 46 45 45 44 43 42 42 41
27 27 26 23 25 28 29 30 33 33 35 35 36 39 39 41 41 42 43 44 45 45 46 46 46 46 46 46 46 47 47 48 48 47 48 48 48 48 48 46 46 45 44 43
29 32 32 27 29 33 36 35 36 38 40 40 40 41 41 42 43 43 44 44 45 47 47 48 49 49 49 50 51 51 52 52 53 54 54 54 54 52 50 49 49 48 48 48
35 36 33 28 32 33 35 36 37 38 39 40 40 42 42 42 43 43 43 43 44 45 46 47 48 50 51 52 53 53 54 53 53 53 53 54 53 53 52 52 52 51 50 50
39 41 40 37 38 38 40 39 40 40 41 42 42 43 44 46 46 46 46 47 47 48 50 51 52 53 53 54 54 54 54 56 57 58 56 55 54 54 55 55 55 54 54 55
39 40 41 43 43 44 44 43 42 42 43 44 44 44 45 46 47 48 49 50 51 52 52 53 54 55 55 56 56 56 57 57 58 59 59 60 59 58 56 55 55 55 57 58
44 40 43 45 47 47 47 47 46 46 45 47 47 48 49 50 52 53 54 55 56 57 57 58 58 59 59 59 59 58 58 59 59 59 59 60 61 60 60 60 58 56 56 55
46 44 48 48 49 49 50 50 50 51 51 53 55 55 56 57 58 58 58 59 60 60 60 60 59 59 59 59 59 58 59 60 60 59 58 58 58 59 59 59 59 59 59 58
49 51 51 51 50 51 51 51 52 54 56 58 60 61 62 63 63 63 63 63 61 59 58 58 58 58 59 59 59 59 59 59 59 59 58 58 59 58 60 62 62 61 63 65
49 49 51 51 50 51 53 54 55 58 60 62 64 65 66 66 66 65 63 62 62 61 60 60 61 62 64 66 65 63 62 62 62 63 63 64 64 65 63 63 64 65 66 68
49 51 53 54 55 56 57 59 61 62 64 64 65 66 66 66 64 64 64 63 63 62 62 64 66 67 70 70 67 64 64 66 68 68 67 67 66 65 65 65 64 63 65 67
55 57 58 59 59 60 62 64 65 66 67 67 66 64 63 63 63 63 63 64 65 66 68 70 69 66 66 65 64 64 63 63 64 63 63 64 64 64 64 64 65 65 65 66
59 60 63 64 65 66 66 66 65 65 64 64 64 64 64 64 63 64 65 65 65 63 62 62 63 64 63 62 61 61 61 62 63 64 64 64 64 65 64 65 65 66 67 68
63 64 65 65 66 66 66 65 63 62 62 61 61 61 61 61 60 60 60 60 60 59 59 60 60 59 59 61 62 62 61 61 62 63 63 64 64 65 65 65 65 65 65 66
63 62 63 62 62 62 61 60 59 58 57 57 57 57 57 57 56 56 56 56 55 54 54 57 57 58 59 61 62 62 62 63 63 64 64 64 65 65 66 66 66 65 64 63
59 59 58 57 56 54 53 52 51 51 51 52 53 54 54 53 53 53 54 53 54 55 55 58 58 58 59 60 62 63 64 65 66 67 68 68 68 68 67 67 66 66 66 64
52 50 49 48 47 46 47 47 47 48 49 50 49 48 49 49 51 52 53 53 54 57 58 59 61 62 64 66 67 68 68 68 69 68 68 67 66 66 67 66 65 64 62 60
47 46 45 45 44 44 43 43 42 42 44 45 46 46 47 48 50 53 54 56 53 58 59 62 64 65 65 65 65 65 64 64 64 64 62 62 61 60 60 58 55 53 52 51
43 43 42 41 38 38 38 40 40 41 43 45 46 47 49 50 52 53 55 58 59 60 63 64 66 66 66 66 65 64 63 61 58 57 57 55 55 53 50 47 45 45 45 44
40 41 40 38 38 38 39 40 42 44 45 46 48 49 52 53 55 58 60 60 63 65 67 67 67 66 66 64 61 57 54 51 47 46 46 46 46 47 47 46 45 44 42 40
37 36 36 37 38 40 40 41 43 45 48 50 52 54 57 61 62 64 67 68 69 71 75 73 67 62 58 55 51 49 46 42 41 42 43 43 42 42 42 42 41 39 36 35
35 36 37 38 42 44 45 45 48 49 52 55 57 59 62 65 68 68 70 73 74 76 70 61 56 53 49 45 43 41 37 39 41 42 42 40 39 38 38 38 36 34 31 29
38 40 42 44 46 48 50 52 55 56 59 61 62 63 65 67 70 75 74 73 69 59 54 51 46 46 43 39 38 37 39 40 40 38 36 34 34 34 33 32 30 26 24 23
42 45 47 49 51 56 60 62 63 63 64 65 67 68 72 74 75 70 63 57 53 51 48 45 43 40 36 36 35 36 38 38 36 36 34 32 31 31 30 27 23 20 19 16
Wind_Direction
221 224 230 233 229 228 229 237 232 237 242 246 252 258 258 260 266 270 272 273 274 276 278 280 281 281 280 279 279 278 279 283 285 286 284 286 286 287 288 288 289 291 293 294
238 237 236 236 242 248 250 252 254 259 258 264 261 265 270 271 273 275 275 275 276 277 278 280 280 279 279 280 280 280 281 282 284 283 283 284 285 286 288 289 289 290 290 290
251 254 251 246 249 249 249 253 259 261 262 262 267 267 270 273 274 272 274 276 277 276 276 277 280 279 279 280 280 282 285 287 285 284 283 284 285 287 289 291 292 291 290 288
252 250 254 256 253 257 259 257 258 262 264 265 267 269 269 270 271 273 273 274 275 275 275 276 275 276 277 278 280 282 283 284 284 285 286 287 288 289 290 291 291 290 289 289
263 260 258 251 256 259 260 258 261 262 264 266 269 270 274 275 276 276 277 278 280 280 281 282 284 284 284 284 284 283 283 283 283 284 284 285 285 286 286 284 284 282 282 282
265 264 263 261 262 263 263 262 265 267 268 270 268 270 272 272 275 276 277 278 279 279 280 280 280 279 279 280 280 281 283 284 285 285 284 285 285 284 284 283 283 282 280 278
269 269 267 266 263 263 264 267 264 266 269 271 274 276 276 276 277 278 279 281 283 284 284 284 285 285 285 286 287 288 288 287 287 287 287 287 287 287 286 284 282 279 278 276
267 270 271 270 269 267 266 268 271 273 273 273 274 274 276 278 280 281 282 283 283 284 285 286 286 287 288 288 288 288 288 289 290 290 289 287 286 285 284 283 282 281 279 277
267 269 271 272 272 272 274 276 277 277 278 278 277 278 279 280 281 282 284 285 286 286 286 286 286 286 286 286 286 287 287 285 285 285 285 286 285 284 284 282 281 279 278 277
265 267 266 268 272 275 278 279 281 281 282 282 283 283 284 284 285 286 287 288 288 288 288 288 287 287 287 286 285 283 282 282 282 281 281 281 281 280 280 280 281 279 277 276
264 265 265 268 270 272 275 277 279 280 282 284 284 285 286 286 287 288 288 288 288 288 287 286 285 284 283 283 283 285 285 284 283 282 281 281 281 282 282 282 281 280 280 279
269 266 267 269 270 273 275 277 279 281 282 284 285 286 287 288 289 289 289 289 288 288 287 287 286 286 287 287 288 287 285 283 284 284 284 283 282 282 283 282 282 283 282 281
269 270 272 272 275 276 277 279 279 281 283 284 285 285 286 287 288 288 288 288 288 288 288 287 287 287 288 289 290 288 286 285 285 285 285 285 284 283 281 282 283 282 282 282
271 271 273 276 277 277 278 279 280 281 282 283 284 285 286 286 286 286 286 287 286 286 286 286 287 288 289 290 289 287 285 286 286 285 285 284 283 282 281 280 278 277 279 279
271 271 273 274 275 277 277 279 282 283 284 285 285 285 284 284 284 284 284 284 285 285 287 288 288 287 287 287 287 287 287 287 287 286 286 285 284 283 282 282 281 280 278 276
269 270 272 273 276 278 280 282 283 283 284 283 283 283 284 283 284 284 284 285 286 286 286 286 286 286 286 286 286 286 286 287 286 285 284 283 283 283 282 282 281 280 279 279
271 272 274 276 278 281 282 283 283 282 283 283 283 283 283 283 284 284 285 285 286 286 286 286 287 287 288 288 288 289 289 288 287 286 285 284 284 283 283 283 282 282 282 283
271 274 277 279 281 282 282 282 282 282 282 283 284 284 284 284 283 284 284 286 288 288 289 288 289 291 291 292 291 291 290 289 289 288 287 286 286 285 286 286 287 287 286 286
275 277 281 282 281 281 281 281 281 282 282 282 282 282 282 283 284 285 286 287 288 290 291 293 294 294 294 293 292 293 292 291 290 289 289 288 288 288 288 287 287 287 287 287
282 281 280 280 280 280 280 280 280 281 281 281 281 281 281 281 283 285 287 288 291 293 294 296 296 296 296 296 295 295 294 293 291 290 289 288 287 286 285 285 286 286 287 287
280 280 281 282 282 281 281 281 280 279 279 278 278 278 280 282 284 284 286 289 292 295 296 297 298 299 299 299 298 296 294 292 291 289 286 283 282 283 284 286 288 288 287 288
280 283 284 283 282 282 281 282 280 279 278 278 280 282 282 282 285 289 292 296 295 298 300 300 300 300 299 297 295 294 294 294 293 292 291 290 290 290 291 291 289 286 286 287
278 278 278 278 279 279 279 278 276 277 279 282 284 286 289 293 294 295 296 298 300 301 303 302 300 300 299 296 294 293 292 291 290 289 289 289 289 288 287 288 288 288 288 289
274 274 273 274 275 275 275 278 281 285 287 289 291 293 293 294 295 297 299 301 302 302 304 304 302 300 297 295 294 293 292 289 288 287 286 285 287 287 287 287 287 286 287 288
267 268 270 270 272 276 280 284 284 285 286 287 289 291 292 293 295 298 299 301 302 303 303 301 298 297 297 295 294 292 289 290 291 290 288 286 285 284 284 285 284 284 286 290
269 269 269 271 275 279 282 283 285 286 287 289 291 293 293 294 297 299 300 300 301 299 297 297 295 296 295 294 292 290 296 298 298 296 294 291 286 283 283 284 284 284 286 285
270 272 273 274 277 279 281 283 285 286 288 291 293 294 295 297 298 298 297 298 298 297 295 293 295 294 291 289 290 296 297 297 297 299 301 298 290 282 281 285 283 279 279 269